Weather History for KLWD - March, 2014

Change the Weather History Date:

Friday, March 7, 2014

  Actual Average Record
Temperature  
Mean Temperature 38 °F 36 °F  
Max Temperature 50 °F 46 °F 72 °F (1987)
Min Temperature 26 °F 26 °F 3 °F (1982)
Degree Days  
Heating Degree Days 27 29  
Month to date heating degree days 333 212  
Since 1 July heating degree days 5607 4929  
Cooling Degree Days 0 0  
Month to date cooling degree days 0 0  
Year to date cooling degree days 0 0  
Moisture  
Dew Point 29 °F    
Average Humidity 75    
Maximum Humidity 85    
Minimum Humidity 65    
Precipitation  
Precipitation 0.00 in 0.06 in 0.68 in (1990)
Month to date precipitation 0.37 0.42  
Sea Level Pressure  
Sea Level Pressure 29.96 in    
Wind  
Wind Speed 12 mph (NW)    
Max Wind Speed 22 mph    
Max Gust Speed 28 mph    
Visibility 7 miles    
Events      
T = Trace of Precipitation, MM = Missing Value Source: NWS Daily Summary

Daily Weather History Graph

Daily Weather History Graph

Search for Another Location

Airport or City:

Trip Planner

Search our weather history database for the weather conditions in past years. The results will help you decide how hot, cold, wet, or windy it might be!

Date:

Astronomy

Mar. 07, 2014 Rise Set
Actual Time 6:40 AM CST 6:13 PM CST
Civil Twilight 6:12 AM CST 6:41 PM CST
Nautical Twilight 5:41 AM CST 7:12 PM CST
Astronomical Twilight 5:09 AM CST 7:44 PM CST
Moon 10:31 AM CST (3/7) 12:21 AM CST (3/7)
Length of Visible Light 12h 28m
Length of Day
11h 33m
Waxing Crescent, 42% of the Moon is Illuminated
Mar 7
Waxing Crescent
Mar 8
First Quarter
Mar 16
Full
Mar 23
Last Quarter
Mar 30
New

Hourly Weather History & Observations

Time (CST) Temp. Windchill Dew Point Humidity Pressure Visibility Wind Dir Wind Speed Gust Speed Precip Events Conditions
12:53 AM 33.1 °F 24.9 °F 26.1 °F 75% 29.94 in 7.0 mi South 10.4 mph - N/A   Clear
1:53 AM 32.0 °F 24.2 °F 25.0 °F 75% 29.94 in 7.0 mi South 9.2 mph - N/A   Clear
2:53 AM 32.0 °F 23.6 °F 25.0 °F 75% 29.90 in 7.0 mi South 10.4 mph - N/A   Clear
3:53 AM 32.0 °F 22.5 °F 26.1 °F 79% 29.89 in 7.0 mi South 12.7 mph - N/A   Clear
4:53 AM 30.9 °F 22.2 °F 26.1 °F 82% 29.88 in 7.0 mi South 10.4 mph - N/A   Clear
5:53 AM 30.0 °F 21.1 °F 25.0 °F 82% 29.88 in 6.0 mi South 10.4 mph - N/A   Haze
6:53 AM 30.0 °F 20.5 °F 26.1 °F 85% 29.88 in 5.0 mi South 11.5 mph - N/A   Partly Cloudy
7:53 AM 34.0 °F 25.5 °F 28.9 °F 82% 29.89 in 5.0 mi South 11.5 mph - N/A   Haze
8:53 AM 37.9 °F 29.2 °F 32.0 °F 79% 29.89 in 6.0 mi SSW 15.0 mph - N/A   Haze
9:53 AM 39.0 °F 31.0 °F 33.1 °F 79% 29.88 in 6.0 mi SSW 13.8 mph - N/A   Haze
10:53 AM 43.0 °F 37.7 °F 34.0 °F 71% 29.90 in 7.0 mi SSW 9.2 mph - N/A   Clear
11:53 AM 46.9 °F - 35.1 °F 63% 29.90 in 9.0 mi SW 8.1 mph - N/A   Clear
12:53 PM 48.0 °F - 35.1 °F 61% 29.88 in 10.0 mi WNW 10.4 mph - N/A   Clear
1:53 PM 46.9 °F - 37.0 °F 68% 29.89 in 9.0 mi WNW 9.2 mph - N/A   Clear
2:53 PM 48.0 °F - 37.9 °F 68% 29.91 in 8.0 mi NW 11.5 mph - N/A   Scattered Clouds
3:53 PM 44.1 °F 38.6 °F 36.0 °F 73% 29.92 in 6.0 mi North 10.4 mph - N/A   Haze
4:44 PM 37.9 °F 28.5 °F 32.0 °F 79% 29.92 in 4.0 mi North 17.3 mph - N/A   Haze
4:53 PM 37.9 °F 30.0 °F 32.0 °F 79% 29.95 in 4.0 mi North 12.7 mph - N/A   Haze
5:53 PM 36.0 °F 26.7 °F 30.9 °F 82% 29.99 in 4.0 mi North 15.0 mph - N/A   Haze
6:00 PM 35.1 °F 24.8 °F 30.9 °F 85% 29.95 in 4.0 mi North 17.3 mph - N/A   Overcast
6:17 PM 34.0 °F 24.2 °F 30.0 °F 85% 29.96 in 4.0 mi North 15.0 mph - N/A   Overcast
6:53 PM 32.0 °F 20.1 °F 28.9 °F 88% 30.01 in 4.0 mi North 19.6 mph - N/A   Overcast
7:53 PM 30.9 °F 19.8 °F 27.0 °F 85% 30.05 in 6.0 mi North 16.1 mph - N/A   Overcast
8:07 PM 30.9 °F 21.2 °F 27.0 °F 85% 30.03 in 7.0 mi North 12.7 mph - N/A   Overcast
8:53 PM 30.0 °F 21.1 °F 25.0 °F 82% 30.07 in 8.0 mi North 10.4 mph - N/A   Overcast
9:53 PM 28.0 °F 17.0 °F 23.0 °F 81% 30.09 in 10.0 mi North 13.8 mph 25.3 mph N/A   Overcast
10:53 PM 27.0 °F 13.9 °F 21.9 °F 81% 30.09 in 10.0 mi North 18.4 mph - N/A   Overcast
11:03 PM 27.0 °F 15.2 °F 21.0 °F 78% 30.07 in 10.0 mi North 15.0 mph 28.8 mph N/A   Overcast
11:49 PM 26.6 °F 15.7 °F 21.2 °F 80% 30.07 in 10.0 mi North 12.7 mph - N/A   Overcast
11:53 PM 26.1 °F 13.1 °F 21.0 °F 81% 30.10 in 10.0 mi North 17.3 mph - N/A   Overcast